[[{"header":{"parameterUnit":"m.s-1","parameterCategory":1,"la1":30.2991,"la2":30.254,"lo1":-89.0895,"lo2":-89.0444,"dy":0.0017,"dx":0.0017,"nx":28,"ny":28,"refTime":"2025-04-30T09:00:00:Z","depth":0,"parameterNumber":2,"parameterNumberName":"U-component_of_WINDS"},"data":[0,0,0,0,0,0,0,0,0,0,0,0,0,0,0,0,0,0,0,0,0,0,0,0,0,0,0,0,0,0,0,0,0,0,0,0,0,0,0,0,0,0,0,0,0,0,0,0,0,0,0,0,0,0,0,0,0,0,0.5042,0.5042,0,0.5043,0.5043,0.5043,0.5019,0.5018,0.5018,0.5017,0.5018,0.5019,0.5019,0,0,0,0,0,0,0,0,0,0,0,0,0,0.5018,0.5019,0.5042,0.5042,0.5042,0.5043,0.5043,0.5043,0.5019,0.5018,0.5018,0.5017,0.5018,0.5019,0.5019,0,0,0,0,0,0,0,0,0,0,0,0,0,0.5025,0.5019,0.5042,0.503,0.5029,0.5043,0.5043,0.5043,0.5019,0.5018,0.5017,0.5017,0.5018,0.5019,0.502,0.5045,0,0,0.5022,0.5023,0,0,0,0,0,0,0,0,0.5025,0.5026,0.5032,0.5031,0.503,0.503,0.5035,0.5044,0.502,0.5023,0.5017,0.5016,0.5023,0.5023,0.5026,0.5045,0.5045,0.5023,0.5023,0.5024,0.5024,0,0,0,0,0,0,0,0.5024,0.5026,0.5043,0.5032,0.5031,0.5025,0.5024,0.5037,0.5028,0.5023,0.5021,0.5021,0.5022,0.5025,0.5026,0.5045,0.5023,0.5023,0.5024,0.5024,0.5082,0.5083,0,0,0,0,0,0,0.5025,0.5025,0.5043,0.5043,0.5025,0.5026,0.5026,0.5031,0.5028,0.5027,0.5022,0.502,0.5024,0.5024,0.5025,0.5053,0.5024,0.5024,0.5025,0.5081,0.5083,0.5084,0,0,0,0,0,0,0.5025,0.5027,0.5042,0.5034,0.5035,0.5027,0.5033,0.5032,0.5034,0.5028,0.5026,0.5027,0.5023,0.5024,0.504,0.5053,0.5025,0.5026,0.508,0.5082,0.5083,0.511,0,0,0,0,0,0,0.5024,0.5027,0.5037,0.5034,0.5036,0.5057,0.5034,0.5032,0.5036,0.5033,0.5031,0.503,0.5022,0.5038,0.5041,0.5054,0.5026,0.5079,0.5081,0.5083,0.5108,0.5112,0.5116,0,0,0,0,0,0.5024,0.5045,0.5038,0.504,0.5048,0.5058,0.5059,0.5049,0.5037,0.5046,0.5042,0.503,0.5051,0.504,0.5042,0.5056,0.5078,0.508,0.5082,0.5106,0.5111,0.5116,0,0,0,0,0,0,0.5051,0.5045,0.5036,0.5057,0.5058,0.5054,0.5066,0.5055,0.506,0.5057,0.5045,0.5045,0.5062,0.5061,0.5048,0.5079,0.5062,0.5065,0.5079,0.5084,0.5088,0.5088,0.5027,0,0,0,0,0,0.5059,0.5068,0.5062,0.5081,0.5082,0.5074,0.5078,0.507,0.5071,0.5071,0.5068,0.5069,0.5075,0.508,0.5086,0.5107,0.5106,0.5118,0.5122,0.5125,0.5127,0.5137,0.5142,0.5091,0.5091,0.5091,0,0,0.5076,0.5074,0.5081,0.5086,0.5086,0.5095,0.5074,0.5085,0.5091,0.5073,0.5087,0.5084,0.5084,0.5103,0.511,0.5102,0.5141,0.5128,0.5131,0.5131,0.514,0.5145,0.5149,0.5092,0.5092,0.5092,0,0,0.5112,0.5112,0.5127,0.5127,0.5127,0.5121,0.5124,0.5121,0.5119,0.5132,0.5118,0.5125,0.5137,0.5137,0.5139,0.5173,0.5161,0.5175,0.5196,0.5205,0.5209,0.5213,0.5223,0.5227,0.5177,0.5177,0.5178,0,0.5134,0.5147,0.5136,0.5147,0.5149,0.5133,0.5147,0.5147,0.5149,0.5151,0.5141,0.5155,0.5154,0.5171,0.5179,0.5181,0.5184,0.5175,0.5209,0.5213,0.5216,0.5226,0.523,0.5179,0.5179,0.5179,0.5179,0,0.5173,0.5182,0.5194,0.5195,0.5199,0.5212,0.5202,0.5207,0.5199,0.5194,0.5207,0.5205,0.5209,0.5213,0.5205,0.5228,0.5223,0.5212,0.5194,0.5222,0.5232,0.5236,0.5181,0.5181,0.518,0.518,0,0,0.5226,0.522,0.5225,0.5224,0.5222,0.5228,0.524,0.5244,0.5247,0.5249,0.5257,0.5267,0.5256,0.5258,0.525,0.5258,0.5283,0.5246,0.5246,0.5252,0.5307,0.5315,0.5319,0.5276,0.5277,0.5277,0.5306,0,0.526,0.5279,0.5269,0.5289,0.5296,0.528,0.5289,0.5288,0.5284,0.5289,0.5284,0.529,0.5276,0.5276,0.5284,0.5279,0.5294,0.5277,0.5283,0.5283,0.5283,0.5324,0.5333,0.5361,0.531,0.5311,0.5311,0,0.5302,0.5304,0.5325,0.5319,0.5322,0.5331,0.5333,0.5338,0.5336,0.5332,0.5333,0.5323,0.5333,0.5316,0.5329,0.5317,0.5319,0.5317,0.5317,0.5317,0.5298,0.5324,0.5369,0.5373,0.5317,0.5317,0.5316,0,0.5337,0.5345,0.5358,0.5358,0.5353,0.5359,0.5357,0.5354,0.5357,0.5358,0.5359,0.5362,0.5363,0.5365,0.5356,0.5345,0.5369,0.5352,0.5365,0.5365,0.537,0.537,0.5416,0.5374,0.5373,0.5373,0.5373,0,0.5375,0.5388,0.5373,0.5381,0.5395,0.5383,0.5396,0.5393,0.539,0.5396,0.5382,0.5388,0.5376,0.538,0.5373,0.5383,0.5384,0.5381,0.5378,0.5381,0.5382,0.5382,0.5379,0.5374,0.5374,0.5374,0.5374,0,0.5416,0.5407,0.542,0.5413,0.5412,0.5422,0.5416,0.5422,0.5416,0.5424,0.5425,0.5416,0.542,0.541,0.5414,0.5409,0.5424,0.5419,0.5424,0.5422,0.5435,0.5434,0.5482,0.5487,0.5443,0.5443,0.5443,0,0.5441,0.545,0.5444,0.5447,0.5445,0.545,0.5452,0.544,0.5443,0.5441,0.5447,0.545,0.5452,0.546,0.5453,0.5455,0.545,0.5466,0.545,0.5452,0.5448,0.5447,0.5448,0.5469,0.547,0.547,0.5471,0,0.5484,0.5479,0.5482,0.5483,0.5486,0.5487,0.5486,0.5489,0.5476,0.548,0.5484,0.5485,0.5488,0.5491,0.5491,0.5489,0.5477,0.5476,0.5479,0.5482,0.5484,0.5481,0.5432,0.5475,0.5475,0.5474,0.5474,0.5474,0.5517,0.5524,0.552,0.5523,0.5522,0.5521,0.5526,0.552,0.5524,0.5525,0.5517,0.5523,0.5519,0.5518,0.5517,0.552,0.5513,0.5517,0.5518,0.5519,0.5521,0.5484,0.552,0.552,0.552,0.552,0.552,0,0.5558,0.5555,0.5558,0.5557,0.556,0.5549,0.5547,0.555,0.5555,0.5553,0.5554,0.5558,0.5561,0.5554,0.5555,0.5559,0.5554,0.5559,0.5559,0.5558,0.5528,0.5525,0.5564,0.5564,0.5564,0.5564,0.5564,0.5564,0.558,0.5591,0.5585,0.5594,0.559,0.5595,0.5595,0.5594,0.5591,0.5596,0.5598,0.5593,0.5589,0.5589,0.559,0.5588,0.5589,0.5596,0.5592,0.5564,0.556,0.5556,0.5553,0.5597,0.5597,0.5621,0.5621,0.5622]},{"header":{"parameterUnit":"m.s-1","parameterCategory":1,"la1":30.2991,"la2":30.254,"lo1":-89.0895,"lo2":-89.0444,"dy":0.0017,"dx":0.0017,"nx":28,"ny":28,"refTime":"2025-04-30T09:00:00:Z","depth":0,"parameterNumber":3,"parameterNumberName":"V-component_of_WINDS"},"data":[0,0,0,0,0,0,0,0,0,0,0,0,0,0,0,0,0,0,0,0,0,0,0,0,0,0,0,0,0,0,0,0,0,0,0,0,0,0,0,0,0,0,0,0,0,0,0,0,0,0,0,0,0,0,0,0,0,0,3.7872,3.7872,0,3.7852,3.7852,3.7851,3.7776,3.7774,3.7773,3.7771,3.7749,3.775,3.7751,0,0,0,0,0,0,0,0,0,0,0,0,0,3.7843,3.7844,3.7872,3.7872,3.7872,3.7852,3.7852,3.7851,3.7776,3.7774,3.7772,3.777,3.7749,3.775,3.7751,0,0,0,0,0,0,0,0,0,0,0,0,0,3.7842,3.7844,3.7872,3.7832,3.7828,3.7852,3.7852,3.7851,3.7777,3.7774,3.7772,3.7769,3.7748,3.775,3.7751,3.7812,0,0,3.7756,3.7756,0,0,0,0,0,0,0,0,3.7843,3.7844,3.7838,3.7835,3.7831,3.7814,3.7833,3.7838,3.7778,3.7796,3.7771,3.7768,3.7773,3.7772,3.7774,3.7811,3.781,3.7756,3.7757,3.7757,3.7758,0,0,0,0,0,0,0,3.7843,3.7844,3.7864,3.7838,3.7834,3.7814,3.7811,3.7834,3.7799,3.7795,3.7789,3.7788,3.777,3.7772,3.7773,3.7809,3.7756,3.7757,3.7758,3.7759,3.7891,3.7893,0,0,0,0,0,0,3.7849,3.7845,3.7865,3.7864,3.7831,3.7816,3.7813,3.7822,3.7799,3.7793,3.779,3.7784,3.7771,3.7771,3.7771,3.7838,3.7757,3.7759,3.776,3.7888,3.7891,3.7894,0,0,0,0,0,0,3.7849,3.7851,3.7866,3.7853,3.7853,3.782,3.783,3.7823,3.7825,3.7795,3.7788,3.7799,3.7769,3.7769,3.7801,3.7836,3.7759,3.7761,3.7885,3.7889,3.7893,3.7974,0,0,0,0,0,0,3.7848,3.7852,3.7876,3.7854,3.7854,3.7897,3.7832,3.7824,3.7828,3.7821,3.7802,3.7796,3.7767,3.78,3.7803,3.7837,3.7762,3.7882,3.7887,3.7891,3.7968,3.798,3.7991,0,0,0,0,0,3.7847,3.79,3.7877,3.788,3.7883,3.79,3.79,3.7865,3.7831,3.7854,3.7834,3.7797,3.7832,3.7803,3.7807,3.7842,3.7879,3.7885,3.7891,3.7963,3.7978,3.7991,0,0,0,0,0,0,3.7927,3.7896,3.7871,3.7918,3.7912,3.7887,3.7915,3.7883,3.7886,3.7879,3.7835,3.7832,3.7869,3.7859,3.7827,3.7897,3.7849,3.7856,3.7903,3.7917,3.7928,3.793,3.7763,0,0,0,0,0,3.795,3.7967,3.7939,3.7983,3.7982,3.7949,3.7955,3.7929,3.792,3.7917,3.79,3.7893,3.7901,3.7909,3.7916,3.7966,3.7959,3.7991,3.8003,3.8012,3.8019,3.8041,3.8055,3.7913,3.7913,3.7913,0,0,3.7999,3.7984,3.7997,3.7999,3.7991,3.8008,3.7947,3.7969,3.798,3.792,3.7949,3.7936,3.7925,3.7965,3.7982,3.7958,3.8056,3.802,3.8028,3.8029,3.8049,3.8062,3.8074,3.7917,3.7916,3.7916,0,0,3.8094,3.8086,3.812,3.8113,3.8102,3.8079,3.8087,3.8066,3.8055,3.8083,3.8038,3.805,3.8068,3.8061,3.8059,3.8149,3.8114,3.8152,3.8211,3.8234,3.8245,3.8255,3.8285,3.8296,3.8159,3.8159,3.8159,0,3.8156,3.818,3.8142,3.8166,3.8167,3.8113,3.8146,3.8141,3.8132,3.8133,3.8106,3.8124,3.8113,3.815,3.8171,3.8173,3.8179,3.8154,3.8247,3.8256,3.8264,3.8293,3.8304,3.8163,3.8163,3.8162,3.8162,0,3.8255,3.8272,3.8301,3.8293,3.8298,3.8326,3.8291,3.8299,3.8272,3.8252,3.8279,3.8263,3.8265,3.8272,3.8246,3.8304,3.8289,3.8255,3.8205,3.8283,3.8309,3.8319,3.817,3.8168,3.8167,3.8166,0,0,3.8403,3.8371,3.8382,3.8377,3.8358,3.837,3.8395,3.8396,3.8403,3.8398,3.8416,3.8431,3.8398,3.8397,3.8369,3.8389,3.8458,3.8352,3.8351,3.8371,3.8519,3.8544,3.8557,3.8435,3.8437,3.8438,3.8519,0,3.8492,3.8533,3.8498,3.8545,3.8559,3.8506,3.8527,3.8517,3.8498,3.8506,3.8485,3.8495,3.8452,3.8451,3.8468,3.8446,3.8487,3.844,3.845,3.8451,3.8454,3.8571,3.8598,3.8675,3.8529,3.8531,3.8532,0,3.8603,3.8602,3.865,3.8626,3.863,3.865,3.8646,3.8655,3.8642,3.8626,3.8623,3.8589,3.8609,3.8561,3.8587,3.8556,3.8558,3.8547,3.8549,3.8548,3.8496,3.8572,3.8699,3.8711,3.8548,3.8546,3.8545,0,3.8704,3.8714,3.8743,3.8741,3.8714,3.8728,3.8717,3.8701,3.8703,3.87,3.87,3.8699,3.8699,3.8698,3.8663,3.8632,3.8693,3.8643,3.8679,3.868,3.8695,3.8694,3.8823,3.8697,3.8697,3.8697,3.8697,0,3.8807,3.8838,3.8788,3.8806,3.8838,3.8797,3.8829,3.8813,3.8799,3.8811,3.8766,3.8778,3.8732,3.8739,3.8712,3.8737,3.8737,3.8724,3.8716,3.8728,3.8729,3.8728,3.8721,3.87,3.8699,3.8699,3.8698,0,3.8925,3.8893,3.8921,3.8892,3.8885,3.891,3.8885,3.8899,3.8876,3.8893,3.8894,3.8858,3.8864,3.8829,3.8829,3.881,3.8847,3.8831,3.8852,3.8846,3.8884,3.8881,3.9016,3.9031,3.8897,3.8899,3.89,0,3.8993,3.9015,3.8988,3.8993,3.8985,3.8994,3.8995,3.8954,3.8956,3.8941,3.8957,3.8959,3.8958,3.8969,3.8942,3.8941,3.8923,3.8971,3.8923,3.8933,3.8922,3.8921,3.8922,3.8981,3.8983,3.8984,3.8985,0,3.9116,3.9098,3.9102,3.9099,3.9101,3.9097,3.909,3.9097,3.9052,3.9057,3.9062,3.9061,3.906,3.9061,3.9054,3.9041,3.9006,3.9,3.9008,3.902,3.9031,3.9024,3.8878,3.8997,3.8996,3.8995,3.8995,3.8994,3.921,3.9226,3.9209,3.9213,3.9203,3.9197,3.9208,3.9186,3.9189,3.9185,3.916,3.9169,3.9152,3.9138,3.9129,3.9134,3.9111,3.9124,3.9127,3.913,3.9136,3.903,3.9133,3.9133,3.9132,3.9132,3.9132,0,3.9329,3.9315,3.9319,3.931,3.9313,3.9278,3.9267,3.9272,3.928,3.9268,3.9267,3.9272,3.9272,3.9245,3.9241,3.9251,3.9234,3.9251,3.925,3.9247,3.9158,3.915,3.9265,3.9265,3.9265,3.9265,3.9265,3.9265,3.9392,3.9416,3.9396,3.9414,3.9399,3.9408,3.9404,3.9397,3.9387,3.9394,3.9394,3.9375,3.9356,3.935,3.9349,3.934,3.934,3.9363,3.9349,3.9266,3.9254,3.9241,3.9234,3.9364,3.9364,3.9437,3.9438,3.9439]}]]